Terminal Aerodrome Forecast
Issued by NWS Sterling, VA

Current Version | Previous Version | Graphics & Text | Print | Product List | Glossary On
Versions: 1 2 3 4 5 6 7 8 9 10 11 12 13 14 15 16 17 18 19 20 21 22 23
970
FTUS41 KLWX 282035 AAF
TAFDCA
TAF AMD
KDCA 282035Z 2821/2918 07009KT P6SM OVC035
     FM290200 12007KT 5SM SHRA OVC015
     FM290600 13005KT P6SM OVC008
     FM291100 20004KT P6SM OVC005
     FM291400 26005KT P6SM BKN012
     FM291600 27006KT P6SM BKN035=

USA.gov is the U.S. government's official web portal to all federal, state and local government web resources and services.